Lid_Strength_Index
3 3 3 3 4 5 9 11 11 6 5 8 9 11 9 7 7 6 7 8 9 10 10 11 11 10 9 7 9 11 11 13 15 12 11 10 12 13 12 16 16 17 17 16
3 3 3 4 4 5 11 12 12 7 6 12 12 10 8 7 7 7 8 9 8 8 10 12 10 9 7 8 9 10 10 15 17 15 14 11 12 12 12 13 14 16 19 16
3 3 3 4 4 5 10 11 12 10 10 11 13 12 11 10 6 7 7 8 8 9 11 10 11 10 8 8 7 6 8 14 15 16 15 12 13 11 11 13 16 15 15 13
3 3 3 4 4 4 9 10 10 10 13 11 10 12 10 10 10 7 7 9 9 10 12 11 12 10 10 8 6 10 11 14 13 13 11 10 11 11 11 13 13 15 13 13
3 3 3 3 4 5 9 11 11 10 11 10 12 12 11 10 9 10 10 9 9 9 11 11 11 11 12 11 10 12 12 14 13 13 10 11 12 10 10 11 11 12 12 13
3 3 3 3 4 6 10 10 10 10 11 12 12 11 11 10 9 9 8 8 9 10 9 7 8 9 9 10 10 12 11 12 13 15 11 12 15 12 10 11 11 11 13 11
4 3 3 3 3 6 10 10 11 12 13 11 11 9 9 9 9 11 9 8 9 7 5 5 7 8 9 9 10 9 12 12 12 15 13 19 12 8 9 11 10 9 10 9
4 3 3 3 3 4 9 10 10 11 14 11 10 9 9 9 9 9 8 7 6 4 7 10 12 12 11 10 10 11 11 12 14 16 16 13 11 10 10 11 12 9 10 9
4 4 4 3 3 3 9 10 8 9 11 12 8 10 10 12 12 10 8 6 6 5 9 11 15 17 14 14 11 9 10 11 14 16 17 18 12 8 7 8 15 8 9 9
4 4 3 4 3 3 7 9 9 11 11 9 9 11 11 10 11 12 10 9 9 7 11 14 15 15 11 16 15 13 13 12 14 15 16 14 9 7 6 15 13 8 9 10
4 4 4 4 4 3 7 9 9 11 13 11 8 7 10 10 11 12 11 10 10 10 13 13 13 14 12 13 11 13 14 15 15 14 16 17 7 8 11 9 8 8 9 9
4 4 4 4 4 4 5 11 8 6 10 11 8 7 6 6 8 10 11 10 11 8 11 10 10 12 12 12 15 9 14 11 13 13 13 10 7 8 7 7 7 8 8 8
3 3 3 3 3 3 5 9 10 10 12 11 10 9 7 5 6 6 11 10 6 6 7 9 10 13 10 13 13 11 9 8 11 11 10 8 7 6 6 7 7 7 8 7
3 3 3 3 3 3 4 9 9 9 9 13 11 6 8 5 6 6 6 6 7 7 6 8 10 12 8 12 10 11 9 9 10 10 9 7 7 6 6 5 6 6 6 6
3 3 3 3 3 3 5 8 8 8 10 12 11 9 6 6 7 7 7 7 8 9 9 9 10 8 9 9 11 11 8 9 11 11 8 8 8 6 5 6 7 6 6 6
2 2 2 2 2 3 7 11 6 5 6 9 14 10 8 7 7 7 7 7 9 9 9 10 10 7 9 11 12 9 8 7 8 8 7 7 6 6 6 7 6 5 5 5
1 1 1 1 1 6 8 10 5 3 4 8 13 13 8 7 8 8 7 7 7 8 9 10 10 10 7 11 12 9 7 7 7 7 7 8 8 8 6 5 4 4 5 5
1 1 0 0 0 3 7 6 2 2 5 6 11 12 9 5 8 8 8 8 8 9 9 10 10 10 10 13 10 9 7 6 7 7 6 7 7 6 5 4 5 5 6 5
0 0 1 3 5 7 7 -0 -0 1 5 8 9 11 12 7 8 8 7 6 10 8 10 10 10 11 12 10 8 8 7 7 7 7 8 7 6 6 5 5 6 6 6 5
0 4 6 7 5 0 0 2 5 5 5 6 9 8 11 9 8 9 8 8 10 12 10 9 11 12 9 8 7 5 6 6 7 7 7 6 6 6 6 7 6 6 6 5
4 5 6 4 0 4 5 7 9 9 9 7 8 10 11 7 10 10 7 10 9 13 11 11 13 14 8 6 6 6 6 6 5 5 5 5 5 6 6 6 5 5 5 5
3 4 3 3 5 7 8 10 8 9 11 10 11 10 9 9 6 8 8 12 10 14 9 11 14 10 8 6 6 6 6 6 5 4 5 5 5 5 6 6 6 6 6 5
3 4 6 7 7 12 12 13 11 11 9 7 7 9 9 9 8 8 9 12 13 9 12 13 11 9 8 7 6 6 5 5 5 5 5 5 5 5 6 6 6 6 6 6
6 7 12 9 11 10 11 10 9 7 7 7 7 8 8 7 10 9 12 10 10 13 15 13 10 8 7 6 5 5 6 6 6 5 5 6 6 6 5 6 6 6 7 7
8 8 12 10 8 8 7 6 6 6 5 7 8 7 7 9 10 9 10 12 14 13 13 11 8 7 6 6 6 6 6 6 5 5 5 5 5 6 6 6 6 6 6 7
6 7 9 8 8 8 7 7 8 5 6 6 8 9 10 11 10 12 13 14 14 11 9 7 8 7 6 6 5 5 5 5 5 5 5 6 6 6 6 6 6 6 6 6
7 9 8 9 8 8 7 7 7 6 7 9 9 11 12 9 11 12 10 12 10 8 7 7 7 7 6 5 5 5 6 6 6 5 5 5 5 6 6 7 6 6 6 6